Time,TemperatureF,DewpointF,PressureIn,WindDirection,WindDirectionDegrees,WindSpeedMPH,WindSpeedGustMPH,Humidity,HourlyPrecipIn,Conditions,Clouds,dailyrainin,SoftwareType,DateUTC
2013-03-18 08:10:00,59.8,56.5,29.81,SSW,194,0.0,0.0,89,0.00,,,0.00,WeatherTracker,2013-03-18 13:10:00,
2013-03-18 08:11:00,59.8,56.5,29.81,SSE,159,0.0,0.0,89,0.00,,,0.00,WeatherTracker,2013-03-18 13:11:00,
2013-03-18 08:16:00,59.9,56.3,29.81,South,174,2.0,0.0,88,0.00,,,0.00,WeatherTracker,2013-03-18 13:16:00,
2013-03-18 08:21:00,60.0,56.4,29.81,WSW,238,0.0,0.0,88,0.00,,,0.00,WeatherTracker,2013-03-18 13:21:00,
2013-03-18 08:26:00,60.0,56.4,29.82,SSW,197,3.0,0.0,88,0.00,,,0.00,WeatherTracker,2013-03-18 13:26:00,
2013-03-18 08:31:00,59.9,56.6,29.82,SW,222,2.0,0.0,89,0.00,,,0.00,WeatherTracker,2013-03-18 13:31:00,
2013-03-18 08:36:00,59.8,56.5,29.82,SSW,192,0.0,0.0,89,0.00,,,0.00,WeatherTracker,2013-03-18 13:36:00,
2013-03-18 08:41:00,59.9,56.6,29.82,South,190,3.0,0.0,89,0.00,,,0.00,WeatherTracker,2013-03-18 13:41:00,
2013-03-18 08:47:00,60.0,56.7,29.81,SSE,162,2.0,0.0,89,0.00,,,0.00,WeatherTracker,2013-03-18 13:47:00,
2013-03-18 08:52:00,60.2,57.3,29.81,SSW,213,0.0,0.0,90,0.00,,,0.00,WeatherTracker,2013-03-18 13:52:00,
2013-03-18 08:57:00,60.4,57.1,29.81,South,182,2.0,0.0,89,0.00,,,0.00,WeatherTracker,2013-03-18 13:57:00,
2013-03-18 09:02:00,60.6,57.3,29.81,SW,218,0.0,0.0,89,0.00,,,0.00,WeatherTracker,2013-03-18 14:02:00,
2013-03-18 09:07:00,60.8,57.2,29.81,SW,223,0.0,0.0,88,0.00,,,0.00,WeatherTracker,2013-03-18 14:07:00,
2013-03-18 09:12:00,60.9,57.3,29.81,South,191,4.0,0.0,88,0.00,,,0.00,WeatherTracker,2013-03-18 14:12:00,
2013-03-18 09:17:00,60.9,57.3,29.82,SSE,151,0.0,0.0,88,0.00,,,0.00,WeatherTracker,2013-03-18 14:17:00,
2013-03-18 09:22:00,60.8,57.2,29.82,SW,217,9.0,0.0,88,0.00,,,0.00,WeatherTracker,2013-03-18 14:22:00,
2013-03-18 09:27:00,60.7,57.1,29.82,SSW,200,5.0,0.0,88,0.00,,,0.00,WeatherTracker,2013-03-18 14:27:00,
2013-03-18 09:32:00,60.7,57.4,29.82,SSW,199,0.0,0.0,89,0.00,,,0.00,WeatherTracker,2013-03-18 14:32:00,
2013-03-18 09:37:00,60.7,57.4,29.81,SSW,192,2.0,0.0,89,0.00,,,0.00,WeatherTracker,2013-03-18 14:37:00,
2013-03-18 09:42:00,60.8,57.5,29.81,SSW,207,1.0,0.0,89,0.00,,,0.00,WeatherTracker,2013-03-18 14:42:00,
2013-03-18 09:47:00,60.7,57.4,29.81,SSW,213,0.0,0.0,89,0.00,,,0.00,WeatherTracker,2013-03-18 14:47:00,
2013-03-18 09:52:00,60.7,57.4,29.81,SSW,198,5.0,0.0,89,0.00,,,0.00,WeatherTracker,2013-03-18 14:52:00,
2013-03-18 09:57:00,60.7,57.4,29.81,South,180,0.0,0.0,89,0.00,,,0.00,WeatherTracker,2013-03-18 14:57:00,
2013-03-18 10:02:00,60.8,57.5,29.81,South,182,1.0,0.0,89,0.00,,,0.00,WeatherTracker,2013-03-18 15:02:00,
2013-03-18 10:07:00,60.9,57.6,29.80,WSW,253,0.0,0.0,89,0.00,,,0.00,WeatherTracker,2013-03-18 15:07:00,
2013-03-18 10:12:00,60.9,57.9,29.81,SW,224,0.0,0.0,90,0.00,,,0.00,WeatherTracker,2013-03-18 15:12:00,
2013-03-18 10:17:00,60.9,57.9,29.80,South,178,0.0,0.0,90,0.00,,,0.00,WeatherTracker,2013-03-18 15:17:00,
2013-03-18 10:23:00,60.8,57.8,29.81,SW,220,1.0,0.0,90,0.00,,,0.00,WeatherTracker,2013-03-18 15:23:00,
2013-03-18 10:28:00,60.8,57.8,29.81,SSW,202,0.0,0.0,90,0.00,,,0.00,WeatherTracker,2013-03-18 15:28:00,
2013-03-18 10:33:00,60.7,58.1,29.81,SSW,205,1.0,0.0,91,0.00,,,0.00,WeatherTracker,2013-03-18 15:33:00,
2013-03-18 10:38:00,60.7,58.1,29.81,SSW,194,0.0,0.0,91,0.00,,,0.00,WeatherTracker,2013-03-18 15:38:00,
2013-03-18 10:43:00,60.6,58.0,29.81,SW,217,0.0,0.0,91,0.00,,,0.00,WeatherTracker,2013-03-18 15:43:00,
2013-03-18 10:48:00,60.6,58.0,29.80,SSW,211,4.0,0.0,91,0.00,,,0.00,WeatherTracker,2013-03-18 15:48:00,
2013-03-18 10:53:00,60.5,58.2,29.80,SSW,192,0.0,0.0,92,0.00,,,0.00,WeatherTracker,2013-03-18 15:53:00,
2013-03-18 10:58:00,60.5,58.2,29.80,SW,226,0.0,0.0,92,0.00,,,0.00,WeatherTracker,2013-03-18 15:58:00,
2013-03-18 11:03:00,60.5,58.2,29.80,SSW,200,0.0,0.0,92,0.00,,,0.00,WeatherTracker,2013-03-18 16:03:00,
2013-03-18 11:08:00,60.5,58.2,29.79,SW,232,6.0,0.0,92,0.00,,,0.00,WeatherTracker,2013-03-18 16:08:00,
2013-03-18 11:13:00,60.5,58.2,29.79,WSW,237,2.0,0.0,92,0.00,,,0.00,WeatherTracker,2013-03-18 16:13:00,
2013-03-18 11:18:00,60.5,58.5,29.80,SSW,213,0.0,0.0,93,0.00,,,0.00,WeatherTracker,2013-03-18 16:18:00,
2013-03-18 11:23:00,60.5,58.5,29.79,SW,228,0.0,0.0,93,0.00,,,0.00,WeatherTracker,2013-03-18 16:23:00,
2013-03-18 11:28:00,60.6,58.6,29.79,SW,225,3.0,0.0,93,0.00,,,0.00,WeatherTracker,2013-03-18 16:28:00,
2013-03-18 11:33:00,60.6,58.6,29.80,SSW,202,0.0,0.0,93,0.00,,,0.00,WeatherTracker,2013-03-18 16:33:00,
2013-03-18 11:38:00,60.7,58.7,29.80,SW,219,2.0,0.0,93,0.00,,,0.00,WeatherTracker,2013-03-18 16:38:00,
2013-03-18 11:43:00,60.8,58.8,29.80,SSW,212,0.0,0.0,93,0.00,,,0.00,WeatherTracker,2013-03-18 16:43:00,
2013-03-18 11:48:00,61.0,59.0,29.80,SW,220,4.0,0.0,93,0.00,,,0.00,WeatherTracker,2013-03-18 16:48:00,
2013-03-18 11:53:00,61.1,59.1,29.80,SW,225,3.0,0.0,93,0.00,,,0.00,WeatherTracker,2013-03-18 16:53:00,
2013-03-18 11:58:00,61.1,59.1,29.79,WSW,240,3.0,0.0,93,0.00,,,0.00,WeatherTracker,2013-03-18 16:58:00,
2013-03-18 12:04:00,61.2,59.2,29.79,SW,217,0.0,0.0,93,0.00,,,0.00,WeatherTracker,2013-03-18 17:04:00,
2013-03-18 12:09:00,61.2,59.2,29.79,WSW,238,3.0,0.0,93,0.00,,,0.00,WeatherTracker,2013-03-18 17:09:00,
2013-03-18 12:14:00,61.3,59.3,29.79,WSW,242,0.0,0.0,93,0.00,,,0.00,WeatherTracker,2013-03-18 17:14:00,
2013-03-18 12:19:00,61.4,59.4,29.78,SW,230,1.0,0.0,93,0.00,,,0.00,WeatherTracker,2013-03-18 17:19:00,
2013-03-18 12:24:00,61.6,59.6,29.78,SW,236,3.0,0.0,93,0.00,,,0.00,WeatherTracker,2013-03-18 17:24:00,
2013-03-18 12:29:00,61.6,59.6,29.78,WSW,241,4.0,0.0,93,0.00,,,0.00,WeatherTracker,2013-03-18 17:29:00,
2013-03-18 12:34:00,61.8,59.8,29.78,WSW,252,0.0,0.0,93,0.00,,,0.00,WeatherTracker,2013-03-18 17:34:00,
2013-03-18 12:39:00,61.9,59.9,29.78,SW,229,0.0,0.0,93,0.00,,,0.00,WeatherTracker,2013-03-18 17:39:00,
2013-03-18 12:44:00,62.0,59.6,29.78,WSW,245,6.0,0.0,92,0.00,,,0.00,WeatherTracker,2013-03-18 17:44:00,
2013-03-18 12:49:00,62.1,59.7,29.78,WNW,294,0.0,0.0,92,0.00,,,0.00,WeatherTracker,2013-03-18 17:49:00,
2013-03-18 12:54:00,62.2,59.8,29.78,SSW,196,3.0,0.0,92,0.00,,,0.00,WeatherTracker,2013-03-18 17:54:00,
2013-03-18 12:59:00,62.3,59.9,29.77,SW,219,2.0,0.0,92,0.00,,,0.00,WeatherTracker,2013-03-18 17:59:00,
2013-03-18 13:04:00,62.4,60.0,29.77,SSE,153,2.0,0.0,92,0.00,,,0.00,WeatherTracker,2013-03-18 18:04:00,
2013-03-18 13:09:00,62.6,59.9,29.77,SW,234,4.0,0.0,91,0.00,,,0.00,WeatherTracker,2013-03-18 18:09:00,
2013-03-18 13:14:00,62.7,60.0,29.77,SW,232,2.0,0.0,91,0.00,,,0.00,WeatherTracker,2013-03-18 18:14:00,
2013-03-18 13:19:00,63.0,60.3,29.77,SW,232,3.0,0.0,91,0.00,,,0.00,WeatherTracker,2013-03-18 18:19:00,
2013-03-18 13:24:00,63.1,60.4,29.77,WSW,237,4.0,0.0,91,0.00,,,0.00,WeatherTracker,2013-03-18 18:24:00,
2013-03-18 13:29:00,63.1,60.1,29.77,SW,232,2.0,0.0,90,0.00,,,0.00,WeatherTracker,2013-03-18 18:29:00,
2013-03-18 13:34:00,63.2,60.2,29.77,West,262,0.0,0.0,90,0.00,,,0.00,WeatherTracker,2013-03-18 18:34:00,
2013-03-18 13:39:00,63.3,60.3,29.76,WSW,258,4.0,0.0,90,0.00,,,0.00,WeatherTracker,2013-03-18 18:39:00,
2013-03-18 13:44:00,63.4,60.4,29.76,SW,233,3.0,0.0,90,0.00,,,0.00,WeatherTracker,2013-03-18 18:44:00,
2013-03-18 13:49:00,63.5,60.5,29.75,West,275,0.0,0.0,90,0.00,,,0.00,WeatherTracker,2013-03-18 18:49:00,
2013-03-18 13:54:00,63.6,60.3,29.75,WSW,250,1.0,0.0,89,0.00,,,0.00,WeatherTracker,2013-03-18 18:54:00,
2013-03-18 13:59:00,63.8,60.5,29.75,WNW,283,0.0,0.0,89,0.00,,,0.00,WeatherTracker,2013-03-18 18:59:00,
2013-03-18 14:04:00,63.9,60.6,29.75,SW,229,0.0,0.0,89,0.00,,,0.00,WeatherTracker,2013-03-18 19:04:00,
2013-03-18 14:09:00,64.1,60.5,29.75,WSW,246,0.0,0.0,88,0.00,,,0.00,WeatherTracker,2013-03-18 19:09:00,
2013-03-18 14:15:00,64.3,60.7,29.74,SSW,195,1.0,0.0,88,0.00,,,0.00,WeatherTracker,2013-03-18 19:15:00,
2013-03-18 14:20:00,64.5,60.9,29.75,WNW,291,1.0,0.0,88,0.00,,,0.00,WeatherTracker,2013-03-18 19:20:00,
2013-03-18 14:25:00,64.6,60.6,29.74,WSW,238,4.0,0.0,87,0.00,,,0.00,WeatherTracker,2013-03-18 19:25:00,
2013-03-18 14:30:00,64.6,60.6,29.73,SW,232,0.0,0.0,87,0.00,,,0.00,WeatherTracker,2013-03-18 19:30:00,
2013-03-18 14:35:00,64.7,60.7,29.74,WSW,249,1.0,0.0,87,0.00,,,0.00,WeatherTracker,2013-03-18 19:35:00,
2013-03-18 14:40:00,64.7,60.7,29.74,SW,236,0.0,0.0,87,0.00,,,0.00,WeatherTracker,2013-03-18 19:40:00,
2013-03-18 14:45:00,64.7,60.7,29.74,West,272,0.0,0.0,87,0.00,,,0.00,WeatherTracker,2013-03-18 19:45:00,
2013-03-18 14:50:00,64.7,61.1,29.73,WNW,284,1.0,0.0,88,0.00,,,0.00,WeatherTracker,2013-03-18 19:50:00,
2013-03-18 14:55:00,64.6,61.0,29.73,West,280,0.0,0.0,88,0.01,,,0.01,WeatherTracker,2013-03-18 19:55:00,
2013-03-18 15:00:00,64.5,60.9,29.73,WSW,246,0.0,0.0,88,0.01,,,0.01,WeatherTracker,2013-03-18 20:00:00,
2013-03-18 15:05:00,64.3,60.7,29.78,NW,305,6.0,0.0,88,0.02,,,0.02,WeatherTracker,2013-03-18 20:05:00,
2013-03-18 15:10:00,62.0,56.4,29.78,West,281,15.0,0.0,82,0.04,,,0.04,WeatherTracker,2013-03-18 20:10:00,
2013-03-18 15:15:00,60.0,55.8,29.82,North,360,4.0,0.0,86,0.08,,,0.08,WeatherTracker,2013-03-18 20:15:00,
2013-03-18 15:20:00,58.4,54.2,29.83,NW,315,9.0,0.0,86,0.11,,,0.11,WeatherTracker,2013-03-18 20:20:00,
2013-03-18 15:25:00,57.0,53.5,29.85,West,260,4.0,0.0,88,0.13,,,0.13,WeatherTracker,2013-03-18 20:25:00,
2013-03-18 15:30:00,56.0,53.1,29.87,NW,325,4.0,0.0,90,0.15,,,0.15,WeatherTracker,2013-03-18 20:30:00,
2013-03-18 15:36:00,55.5,52.9,29.88,NNW,329,0.0,0.0,91,0.18,,,0.18,WeatherTracker,2013-03-18 20:36:00,
2013-03-18 17:47:00,55.2,53.5,29.74,WSW,237,0.0,0.0,94,0.09,,,0.51,WeatherTracker,2013-03-18 22:47:00,
2013-03-18 17:52:00,55.4,53.7,29.74,WSW,237,0.0,0.0,94,0.09,,,0.51,WeatherTracker,2013-03-18 22:52:00,
2013-03-18 17:57:00,55.5,53.5,29.74,SSW,194,0.0,0.0,93,0.09,,,0.51,WeatherTracker,2013-03-18 22:57:00,
2013-03-18 18:02:00,55.6,53.6,29.74,SSW,194,0.0,0.0,93,0.06,,,0.51,WeatherTracker,2013-03-18 23:02:00,
2013-03-18 18:07:00,55.7,53.7,29.74,SSW,194,0.0,0.0,93,0.06,,,0.51,WeatherTracker,2013-03-18 23:07:00,
2013-03-18 18:12:00,55.8,53.8,29.74,SSW,194,0.0,0.0,93,0.06,,,0.51,WeatherTracker,2013-03-18 23:12:00,
2013-03-18 18:17:00,55.7,53.4,29.74,ENE,71,0.0,0.0,92,0.06,,,0.51,WeatherTracker,2013-03-18 23:17:00,
2013-03-18 18:22:00,55.5,52.9,29.74,North,355,0.0,0.0,91,0.06,,,0.51,WeatherTracker,2013-03-18 23:22:00,
2013-03-18 18:27:00,55.5,52.6,29.75,North,355,0.0,0.0,90,0.06,,,0.51,WeatherTracker,2013-03-18 23:27:00,
2013-03-18 18:32:00,55.6,52.7,29.75,North,355,0.0,0.0,90,0.06,,,0.51,WeatherTracker,2013-03-18 23:32:00,
2013-03-18 18:38:00,55.7,52.5,29.75,North,355,0.0,0.0,89,0.07,,,0.52,WeatherTracker,2013-03-18 23:38:00,
2013-03-18 18:43:00,55.8,52.6,29.75,NE,41,0.0,0.0,89,0.07,,,0.52,WeatherTracker,2013-03-18 23:43:00,
2013-03-18 18:48:00,55.8,52.3,29.76,NE,41,0.0,0.0,88,0.01,,,0.52,WeatherTracker,2013-03-18 23:48:00,
2013-03-18 18:53:00,55.8,52.3,29.76,North,5,0.0,0.0,88,0.01,,,0.52,WeatherTracker,2013-03-18 23:53:00,
2013-03-18 18:58:00,55.8,52.0,29.77,North,360,0.0,0.0,87,0.01,,,0.52,WeatherTracker,2013-03-18 23:58:00,
2013-03-18 19:03:00,55.9,51.8,29.76,North,9,0.0,0.0,86,0.01,,,0.52,WeatherTracker,2013-03-19 00:03:00,
2013-03-18 19:08:00,56.0,51.9,29.77,NNW,343,0.0,0.0,86,0.01,,,0.52,WeatherTracker,2013-03-19 00:08:00,
2013-03-18 19:13:00,56.0,51.9,29.77,NNW,343,0.0,0.0,86,0.01,,,0.52,WeatherTracker,2013-03-19 00:13:00,
2013-03-18 19:18:00,56.0,51.9,29.77,NNW,344,0.0,0.0,86,0.01,,,0.52,WeatherTracker,2013-03-19 00:18:00,
2013-03-18 19:23:00,56.0,51.6,29.78,NW,317,0.0,0.0,85,0.01,,,0.52,WeatherTracker,2013-03-19 00:23:00,
2013-03-18 19:28:00,56.1,51.7,29.78,WNW,301,0.0,0.0,85,0.01,,,0.52,WeatherTracker,2013-03-19 00:28:00,
2013-03-18 19:33:00,56.2,51.7,29.78,WNW,302,3.0,0.0,85,0.00,,,0.52,WeatherTracker,2013-03-19 00:33:00,
2013-03-18 19:38:00,56.3,51.8,29.79,WNW,296,0.0,0.0,85,0.00,,,0.52,WeatherTracker,2013-03-19 00:38:00,
2013-03-18 19:43:00,56.4,51.9,29.79,West,281,0.0,0.0,85,0.00,,,0.52,WeatherTracker,2013-03-19 00:43:00,
2013-03-18 19:48:00,56.5,52.0,29.79,WNW,288,0.0,0.0,85,0.00,,,0.52,WeatherTracker,2013-03-19 00:48:00,
2013-03-18 19:54:00,56.6,52.1,29.79,West,263,0.0,0.0,85,0.00,,,0.52,WeatherTracker,2013-03-19 00:54:00,
2013-03-18 19:59:00,56.6,52.1,29.80,NW,311,0.0,0.0,85,0.00,,,0.52,WeatherTracker,2013-03-19 00:59:00,
2013-03-18 20:04:00,56.6,52.1,29.80,WNW,296,0.0,0.0,85,0.00,,,0.52,WeatherTracker,2013-03-19 01:04:00,
2013-03-18 20:09:00,56.5,52.4,29.80,West,272,7.0,0.0,86,0.00,,,0.52,WeatherTracker,2013-03-19 01:09:00,
2013-03-18 20:14:00,56.4,52.3,29.81,West,279,6.0,0.0,86,0.00,,,0.52,WeatherTracker,2013-03-19 01:14:00,
2013-03-18 20:19:00,56.4,52.3,29.82,NW,315,4.0,0.0,86,0.00,,,0.52,WeatherTracker,2013-03-19 01:19:00,
2013-03-18 20:24:00,56.2,52.4,29.83,West,281,3.0,0.0,87,0.00,,,0.52,WeatherTracker,2013-03-19 01:24:00,
2013-03-18 20:29:00,56.0,52.5,29.83,NW,310,0.0,0.0,88,0.00,,,0.52,WeatherTracker,2013-03-19 01:29:00,
2013-03-18 20:34:00,55.7,52.5,29.84,WNW,303,0.0,0.0,89,0.00,,,0.52,WeatherTracker,2013-03-19 01:34:00,
2013-03-18 20:39:00,55.5,52.3,29.84,WNW,303,0.0,0.0,89,0.00,,,0.52,WeatherTracker,2013-03-19 01:39:00,
2013-03-18 20:44:00,55.4,52.5,29.84,WNW,302,0.0,0.0,90,0.00,,,0.52,WeatherTracker,2013-03-19 01:44:00,
2013-03-18 20:49:00,55.2,52.3,29.84,WNW,295,0.0,0.0,90,0.00,,,0.52,WeatherTracker,2013-03-19 01:49:00,
2013-03-18 20:54:00,55.1,52.5,29.84,West,281,8.0,0.0,91,0.00,,,0.52,WeatherTracker,2013-03-19 01:54:00,
2013-03-18 20:59:00,55.0,52.4,29.84,NNW,333,1.0,0.0,91,0.00,,,0.52,WeatherTracker,2013-03-19 01:59:00,
2013-03-18 21:04:00,55.0,52.4,29.85,NNW,336,5.0,0.0,91,0.00,,,0.52,WeatherTracker,2013-03-19 02:04:00,
2013-03-18 21:09:00,54.9,52.6,29.85,WNW,302,0.0,0.0,92,0.00,,,0.52,WeatherTracker,2013-03-19 02:09:00,
2013-03-18 21:14:00,54.8,52.5,29.85,NW,305,1.0,0.0,92,0.00,,,0.52,WeatherTracker,2013-03-19 02:14:00,
2013-03-18 21:19:00,54.6,52.3,29.85,WNW,302,0.0,0.0,92,0.00,,,0.52,WeatherTracker,2013-03-19 02:19:00,
2013-03-18 21:24:00,54.5,52.2,29.86,NNW,345,4.0,0.0,92,0.00,,,0.52,WeatherTracker,2013-03-19 02:24:00,
2013-03-18 21:29:00,54.3,52.0,29.86,WNW,300,7.0,0.0,92,0.00,,,0.52,WeatherTracker,2013-03-19 02:29:00,
2013-03-18 21:34:00,54.2,51.9,29.87,WNW,286,1.0,0.0,92,0.00,,,0.52,WeatherTracker,2013-03-19 02:34:00,
2013-03-18 21:39:00,54.1,52.1,29.87,NW,304,5.0,0.0,93,0.00,,,0.52,WeatherTracker,2013-03-19 02:39:00,
2013-03-18 21:44:00,54.1,52.1,29.87,West,277,4.0,0.0,93,0.00,,,0.52,WeatherTracker,2013-03-19 02:44:00,
2013-03-18 21:50:00,54.0,52.0,29.88,NW,304,0.0,0.0,93,0.00,,,0.52,WeatherTracker,2013-03-19 02:50:00,
2013-03-18 21:55:00,54.0,52.0,29.88,NW,311,0.0,0.0,93,0.00,,,0.52,WeatherTracker,2013-03-19 02:55:00,
2013-03-18 22:00:00,53.9,51.9,29.88,WNW,302,1.0,0.0,93,0.00,,,0.52,WeatherTracker,2013-03-19 03:00:00,
2013-03-18 22:05:00,53.8,51.8,29.88,NW,310,4.0,0.0,93,0.00,,,0.52,WeatherTracker,2013-03-19 03:05:00,
2013-03-18 22:10:00,53.6,51.6,29.89,NW,317,0.0,0.0,93,0.00,,,0.52,WeatherTracker,2013-03-19 03:10:00,
2013-03-18 22:15:00,53.4,51.4,29.89,NW,315,0.0,0.0,93,0.00,,,0.52,WeatherTracker,2013-03-19 03:15:00,
2013-03-18 22:20:00,53.2,51.2,29.89,NW,308,2.0,0.0,93,0.00,,,0.52,WeatherTracker,2013-03-19 03:20:00,
2013-03-18 22:25:00,53.1,51.1,29.89,WNW,294,0.0,0.0,93,0.00,,,0.52,WeatherTracker,2013-03-19 03:25:00,
2013-03-18 22:30:00,52.9,50.9,29.90,NW,314,5.0,0.0,93,0.00,,,0.52,WeatherTracker,2013-03-19 03:30:00,
2013-03-18 22:35:00,52.7,50.7,29.91,NW,317,0.0,0.0,93,0.00,,,0.52,WeatherTracker,2013-03-19 03:35:00,
2013-03-18 22:40:00,52.4,50.1,29.91,NW,320,5.0,0.0,92,0.00,,,0.52,WeatherTracker,2013-03-19 03:40:00,
2013-03-18 22:45:00,52.2,49.9,29.91,WNW,285,0.0,0.0,92,0.00,,,0.52,WeatherTracker,2013-03-19 03:45:00,
2013-03-18 22:50:00,52.0,49.5,29.91,WNW,298,5.0,0.0,91,0.00,,,0.52,WeatherTracker,2013-03-19 03:50:00,
2013-03-18 22:55:00,51.8,49.3,29.91,North,355,4.0,0.0,91,0.00,,,0.52,WeatherTracker,2013-03-19 03:55:00,
2013-03-18 23:00:00,51.7,48.9,29.91,NW,311,3.0,0.0,90,0.00,,,0.52,WeatherTracker,2013-03-19 04:00:00,
2013-03-18 23:05:00,51.5,48.7,29.91,WNW,296,0.0,0.0,90,0.00,,,0.52,WeatherTracker,2013-03-19 04:05:00,
2013-03-18 23:11:00,51.4,48.3,29.92,NW,315,0.0,0.0,89,0.00,,,0.52,WeatherTracker,2013-03-19 04:11:00,
2013-03-18 23:16:00,51.2,48.1,29.92,NNW,336,0.0,0.0,89,0.00,,,0.52,WeatherTracker,2013-03-19 04:16:00,
2013-03-18 23:21:00,51.0,47.9,29.92,NNW,333,0.0,0.0,89,0.00,,,0.52,WeatherTracker,2013-03-19 04:21:00,
2013-03-18 23:26:00,50.9,47.8,29.92,NNW,329,2.0,0.0,89,0.00,,,0.52,WeatherTracker,2013-03-19 04:26:00,
2013-03-18 23:31:00,50.7,47.6,29.92,NW,320,0.0,0.0,89,0.00,,,0.52,WeatherTracker,2013-03-19 04:31:00,
2013-03-18 23:36:00,50.5,47.4,29.93,NW,323,3.0,0.0,89,0.00,,,0.52,WeatherTracker,2013-03-19 04:36:00,
2013-03-18 23:41:00,50.4,47.3,29.93,NW,321,1.0,0.0,89,0.00,,,0.52,WeatherTracker,2013-03-19 04:41:00,
2013-03-18 23:46:00,50.3,47.2,29.93,North,351,4.0,0.0,89,0.00,,,0.52,WeatherTracker,2013-03-19 04:46:00,
2013-03-18 23:51:00,50.3,47.2,29.93,NW,321,2.0,0.0,89,0.00,,,0.52,WeatherTracker,2013-03-19 04:51:00,
2013-03-18 23:56:00,50.2,47.4,29.93,NNW,330,10.0,0.0,90,0.00,,,0.52,WeatherTracker,2013-03-19 04:56:00,